Change the Weather History Date:

Saturday, February 23, 2013

  Actual Average Record
Temperature  
Mean Temperature 40 °F 36 °F  
Max Temperature 46 °F 44 °F 74 °F (1874)
Min Temperature 33 °F 27 °F 1 °F (1868)
Degree Days  
Heating Degree Days 25 29  
Month to date heating degree days 767 724  
Since 1 July heating degree days 3475 3670  
Cooling Degree Days 0 0  
Month to date cooling degree days 0 0  
Year to date cooling degree days 0 0  
Moisture  
Dew Point 38 °F    
Average Humidity 91    
Maximum Humidity 100    
Minimum Humidity 82    
Precipitation  
Precipitation 0.15 in 0.09 in 1.40 in (1998)
Month to date precipitation 1.29 1.84  
Year to date precipitation 4.11 5.00  
Sea Level Pressure  
Sea Level Pressure 30.03 in    
Wind  
Wind Speed 7 mph (East)    
Max Wind Speed 17 mph    
Max Gust Speed 23 mph    
Visibility 4 miles    
Events Rain    
T = Trace of Precipitation, MM = Missing Value Source: NWS Daily Summary

Daily Weather History Graph

Daily Weather History Graph

Search for Another Location

Airport or City:

Trip Planner

Search our weather history database for the weather conditions in past years. The results will help you decide how hot, cold, wet, or windy it might be!

Date:

Astronomy

Feb. 23, 2013 Rise Set
Actual Time 6:41 AM EST 5:44 PM EST
Civil Twilight 6:13 AM EST 6:11 PM EST
Nautical Twilight 5:42 AM EST 6:43 PM EST
Astronomical Twilight 5:10 AM EST 7:14 PM EST
Moon 3:52 PM EST (2/23) 5:02 AM EST (2/23)
Length of Visible Light 11h 58m
Length of Day
11h 03m
Waxing Gibbous, 95% of the Moon is Illuminated
Feb 23
Waxing Gibbous
Feb 25
Full
Mar 4
Last Quarter
Mar 11
New
Mar 19
First Quarter

Hourly Weather History & Observations

Time (EST) Temp. Windchill Dew Point Humidity Pressure Visibility Wind Dir Wind Speed Gust Speed Precip Events Conditions
12:10 AM 33.8 °F - 28.4 °F 81% 30.25 in 10.0 mi Calm Calm - N/A   Overcast
12:53 AM 34.0 °F - 28.9 °F 82% 30.24 in 10.0 mi Calm Calm - N/A   Overcast
1:19 AM 33.8 °F 30.8 °F 30.2 °F 87% 30.23 in 4.0 mi ENE 3.5 mph - N/A   Overcast
1:26 AM 33.8 °F 30.8 °F 30.2 °F 87% 30.22 in 4.0 mi East 3.5 mph - N/A   Overcast
1:41 AM 33.8 °F 30.8 °F 30.2 °F 87% 30.22 in 3.0 mi East 3.5 mph - N/A   Overcast
1:53 AM 33.1 °F 30.0 °F 30.9 °F 92% 30.21 in 3.0 mi East 3.5 mph - N/A   Overcast
2:14 AM 33.8 °F 29.6 °F 32.0 °F 93% 30.21 in 2.5 mi East 4.6 mph - 0.00 in Rain Light Rain
2:44 AM 33.8 °F 29.6 °F 33.8 °F 100% 30.19 in 3.0 mi East 4.6 mph - 0.00 in   Overcast
2:51 AM 33.8 °F 29.6 °F 33.8 °F 100% 30.19 in 3.0 mi East 4.6 mph - 0.00 in   Overcast
2:53 AM 34.0 °F 29.8 °F 33.1 °F 96% 30.17 in 3.0 mi East 4.6 mph - 0.00 in   Overcast
3:20 AM 35.6 °F 31.7 °F 33.8 °F 93% 30.18 in 2.5 mi ESE 4.6 mph - 0.01 in   Overcast
3:46 AM 35.6 °F 30.7 °F 33.8 °F 93% 30.16 in 2.0 mi ESE 5.8 mph - 0.01 in   Overcast
3:53 AM 35.1 °F 30.1 °F 34.0 °F 96% 30.15 in 2.0 mi East 5.8 mph - 0.01 in   Overcast
4:26 AM 35.6 °F 30.7 °F 35.6 °F 100% 30.15 in 3.0 mi ESE 5.8 mph - N/A   Overcast
4:40 AM 35.6 °F 31.7 °F 35.6 °F 100% 30.14 in 2.5 mi ESE 4.6 mph - 0.01 in   Overcast
4:53 AM 36.0 °F 32.1 °F 35.1 °F 97% 30.13 in 2.5 mi ESE 4.6 mph - 0.01 in   Overcast
5:53 AM 37.0 °F 33.3 °F 36.0 °F 96% 30.12 in 2.0 mi East 4.6 mph - 0.00 in   Overcast
6:18 AM 37.4 °F 32.8 °F 35.6 °F 93% 30.12 in 3.0 mi ESE 5.8 mph - 0.01 in   Overcast
6:53 AM 37.0 °F 33.3 °F 36.0 °F 96% 30.11 in 2.5 mi East 4.6 mph - 0.01 in   Overcast
7:20 AM 37.4 °F 32.8 °F 35.6 °F 93% 30.12 in 1.2 mi East 5.8 mph - N/A   Overcast
7:53 AM 37.9 °F 32.7 °F 37.0 °F 97% 30.10 in 1.5 mi East 6.9 mph - N/A   Overcast
8:53 AM 39.0 °F 33.4 °F 37.9 °F 96% 30.07 in 1.2 mi East 8.1 mph - 0.01 in Rain Light Rain
9:20 AM 39.2 °F 34.2 °F 39.2 °F 100% 30.08 in 2.5 mi East 6.9 mph - 0.00 in Rain Light Rain
9:28 AM 39.2 °F 34.2 °F 39.2 °F 100% 30.07 in 3.0 mi ESE 6.9 mph - 0.00 in   Overcast
9:53 AM 39.9 °F 37.8 °F 39.9 °F 100% 30.05 in 2.0 mi East 3.5 mph - 0.01 in Rain Light Rain
10:11 AM 41.0 °F 38.0 °F 39.2 °F 93% 30.06 in 1.8 mi East 4.6 mph - 0.00 in Rain Light Rain
10:22 AM 42.8 °F 39.3 °F 39.2 °F 87% 30.04 in 2.0 mi East 5.8 mph - 0.01 in Rain Light Rain
10:48 AM 42.8 °F 39.3 °F 41.0 °F 93% 30.04 in 1.8 mi ESE 5.8 mph - 0.01 in Rain Light Rain
10:53 AM 42.1 °F 39.2 °F 41.0 °F 96% 30.03 in 2.0 mi East 4.6 mph - 0.01 in Rain Light Rain
11:21 AM 42.8 °F 39.3 °F 42.8 °F 100% 30.02 in 1.8 mi East 5.8 mph - 0.00 in   Overcast
11:53 AM 44.1 °F 40.8 °F 42.1 °F 93% 30.00 in 2.0 mi East 5.8 mph - 0.01 in Rain Light Rain
12:01 PM 44.6 °F 40.7 °F 42.8 °F 93% 30.00 in 1.5 mi East 6.9 mph - 0.00 in Rain Light Rain
12:29 PM 44.6 °F 41.4 °F 42.8 °F 93% 29.98 in 2.5 mi ESE 5.8 mph - 0.01 in Rain Light Rain
12:53 PM 45.0 °F 41.8 °F 43.0 °F 93% 29.95 in 2.5 mi East 5.8 mph - 0.02 in Rain Light Rain
1:05 PM 44.6 °F 41.4 °F 42.8 °F 93% 29.96 in 3.0 mi East 5.8 mph - 0.00 in Rain Light Rain
1:29 PM 44.6 °F 41.4 °F 44.6 °F 100% 29.95 in 2.5 mi ENE 5.8 mph - 0.00 in   Overcast
1:42 PM 44.6 °F 42.2 °F 44.6 °F 100% 29.95 in 3.0 mi NE 4.6 mph - 0.00 in   Overcast
1:53 PM 45.0 °F 42.6 °F 44.1 °F 97% 29.94 in 4.0 mi NNE 4.6 mph - 0.00 in   Overcast
2:05 PM 44.6 °F 41.4 °F 42.8 °F 93% 29.95 in 2.0 mi NNE 5.8 mph - 0.00 in Rain Light Rain
2:14 PM 44.6 °F 40.7 °F 42.8 °F 93% 29.94 in 1.5 mi NE 6.9 mph - 0.01 in Rain Light Rain
2:53 PM 45.0 °F 41.2 °F 44.1 °F 97% 29.91 in 1.5 mi NNE 6.9 mph - 0.02 in Rain Light Rain
3:07 PM 44.6 °F 41.4 °F 42.8 °F 93% 29.92 in 2.5 mi NE 5.8 mph - 0.01 in Rain Light Rain
3:41 PM 44.6 °F 40.2 °F 42.8 °F 93% 29.91 in 3.0 mi NE 8.1 mph - 0.03 in Rain Light Rain
3:53 PM 45.0 °F 41.2 °F 43.0 °F 93% 29.89 in 4.0 mi ENE 6.9 mph - 0.03 in Rain Light Rain
4:53 PM 44.1 °F 38.1 °F 42.1 °F 93% 29.87 in 8.0 mi East 11.5 mph - 0.01 in   Overcast
5:53 PM 42.1 °F 33.9 °F 39.9 °F 92% 29.86 in 10.0 mi East 17.3 mph 21.9 mph 0.00 in   Overcast
6:53 PM 39.9 °F 32.1 °F 37.9 °F 93% 29.87 in 6.0 mi East 13.8 mph - 0.00 in Rain Light Rain
7:53 PM 39.9 °F 32.9 °F 37.0 °F 89% 29.85 in 10.0 mi East 11.5 mph 20.7 mph 0.00 in   Overcast
8:53 PM 39.9 °F 35.1 °F 37.0 °F 89% 29.83 in 10.0 mi ENE 6.9 mph - N/A   Overcast
9:53 PM 39.0 °F 33.4 °F 37.0 °F 93% 29.83 in 5.0 mi ENE 8.1 mph - N/A   Overcast
10:08 PM 37.4 °F 30.8 °F 37.4 °F 100% 29.83 in 3.0 mi NE 9.2 mph - N/A   Overcast
10:19 PM 37.4 °F 32.1 °F 35.6 °F 93% 29.83 in 2.5 mi NE 6.9 mph - N/A   Overcast
10:49 PM 37.4 °F 31.4 °F 35.6 °F 93% 29.82 in 3.0 mi NE 8.1 mph - N/A   Overcast
10:53 PM 37.0 °F 31.0 °F 36.0 °F 96% 29.80 in 3.0 mi NE 8.1 mph - N/A   Overcast
11:53 PM 37.0 °F 32.4 °F 36.0 °F 96% 29.79 in 8.0 mi NNE 5.8 mph - N/A   Overcast